Location: Gälforsberget
(66.6500°N, 22.4167°E)
Time: 22:20:19
(UTC+00:00)

Cosmos 1656 - Pass Details

Date: 11 April 2026
Orbit: 798 x 846 km, 71.1° (Epoch: 13 May)

Event Time Altitude Azimuth Distance (km) Brightness Sun altitude
Rises 21:14:43 0° 304° (NW) 3,317 7.7 -13.5°
Reaches altitude 10° 21:17:07 10° 305° (NW) 2,384 6.9 -13.6°
Maximum altitude 21:22:35 89° 31° (NNE) 810 3.6 -13.7°
Enters shadow 21:27:28 13° 126° (SE) 2,164 5.4 -13.9°
